[[{"header":{"parameterUnit":"m.s-1","parameterCategory":1,"la1":30.2992,"la2":30.254,"lo1":-89.0895,"lo2":-89.0443,"dy":0.0025,"dx":0.0025,"nx":19,"ny":19,"refTime":"2026-03-18T21:00:00:Z","depth":0,"parameterNumber":2,"parameterNumberName":"U-component_of_WINDS"},"data":[0,0,0,0.9908,0.9908,0.9872,0.9872,0.983,0.983,0,0,0,0,0,0,0,0,0,0,0,0.9922,0.9922,0.9908,0.9908,0.9872,0.9872,0.9831,0.983,0,0,0,0,0,0,0,0,0,0,0,0.9922,0.9922,0.9922,0.9907,0.9872,0.9872,0.9831,0.9856,0,0,0,0,0,0,0,0,0,0,0.9889,0.9906,0.9922,0.9922,0.9907,0.9872,0.9872,0.9857,0.9854,0.9848,0,0.9845,0,0.9837,0.9828,0.9828,0,0,0,0.9905,0.9908,0.9896,0.9922,0.9907,0.9872,0.9887,0.9855,0.9852,0.9845,0.9845,0.9843,0.9836,0.9827,0.9827,0.9805,0.9805,0,0,0.9907,0.9918,0.9898,0.9894,0.9901,0.9889,0.9886,0.9853,0.9853,0.9844,0.9842,0.9836,0.9827,0.9827,0.9805,0.9805,0,0,0,0.9914,0.9919,0.9907,0.9896,0.9889,0.9888,0.9885,0.9855,0.985,0.9841,0.9835,0.9827,0.9827,0.9805,0.9805,0.9817,0,0,0,0.9915,0.9923,0.9908,0.9914,0.989,0.9872,0.9888,0.9852,0.9848,0.9835,0.9827,0.9826,0.9805,0.9805,0.9817,0.9821,0,0,0,0.9923,0.9924,0.992,0.9915,0.99,0.9872,0.9865,0.9851,0.9845,0.9828,0.9826,0.9805,0.9805,0.9817,0.9821,0.9818,0,0,0,0.9935,0.9932,0.9921,0.9915,0.9901,0.988,0.9865,0.985,0.9836,0.9827,0.9805,0.9805,0.9817,0.982,0.9818,0.9818,0.9819,0,0,0.9937,0.9933,0.9928,0.9917,0.9902,0.9885,0.987,0.9848,0.9836,0.9816,0.9815,0.9817,0.9821,0.9818,0.9823,0.9824,0,0,0,0.9933,0.993,0.9923,0.9911,0.9894,0.9879,0.9857,0.9848,0.9831,0.9828,0.9815,0.9817,0.9815,0.9815,0.9815,0.9813,0.9806,0.9806,0.9806,0.9952,0.9937,0.9928,0.9908,0.9897,0.9874,0.9862,0.9846,0.9835,0.9832,0.9826,0.9831,0.983,0.9831,0.9828,0.9825,0.9825,0.9825,0.9825,0.9953,0.9946,0.993,0.9916,0.9899,0.9886,0.9864,0.9855,0.984,0.9834,0.9832,0.9826,0.9833,0.9829,0.9826,0.9826,0.9826,0.9825,0.9825,0.9964,0.9958,0.9947,0.9927,0.9914,0.9893,0.9879,0.9865,0.9851,0.9848,0.9839,0.9839,0.9836,0.9845,0.9845,0.9845,0.9845,0.9845,0.9845,0.9979,0.9966,0.9957,0.9938,0.9927,0.9912,0.9888,0.9877,0.986,0.9851,0.985,0.9838,0.9836,0.9836,0.9845,0.9845,0.9845,0.9845,0.9845,0.9985,0.9981,0.9967,0.9956,0.9931,0.9918,0.9899,0.9878,0.9866,0.9859,0.9847,0.9849,0.9843,0.9842,0.9841,0.9851,0.9851,0.9851,0.9851,0.9993,0.9989,0.997,0.9954,0.9937,0.9919,0.9901,0.9881,0.986,0.9852,0.9848,0.9846,0.9846,0.984,0.9839,0.9839,0.9848,0.9848,0.9848,0.9996,0.9989,0.9978,0.9958,0.9937,0.9919,0.9901,0.9882,0.9858,0.9847,0.9845,0.9845,0.9842,0.9842,0.9831,0.983,0.9829,0,0]},{"header":{"parameterUnit":"m.s-1","parameterCategory":1,"la1":30.2992,"la2":30.254,"lo1":-89.0895,"lo2":-89.0443,"dy":0.0025,"dx":0.0025,"nx":19,"ny":19,"refTime":"2026-03-18T21:00:00:Z","depth":0,"parameterNumber":3,"parameterNumberName":"V-component_of_WINDS"},"data":[0,0,0,0.5076,0.5076,0.5059,0.5059,0.5055,0.5055,0,0,0,0,0,0,0,0,0,0,0,0.5094,0.5094,0.5076,0.5076,0.5059,0.5059,0.5055,0.5055,0,0,0,0,0,0,0,0,0,0,0,0.5093,0.5094,0.5094,0.5076,0.5059,0.5059,0.5055,0.5061,0,0,0,0,0,0,0,0,0,0,0.5075,0.5103,0.5094,0.5094,0.5076,0.5059,0.5059,0.5061,0.5061,0.5071,0,0.5084,0,0.507,0.5056,0.5056,0,0,0,0.5067,0.5103,0.5088,0.5094,0.5076,0.5059,0.5064,0.5061,0.5061,0.5071,0.5084,0.5083,0.507,0.5056,0.5056,0.5145,0.5146,0,0,0.5068,0.5097,0.5088,0.5088,0.5093,0.5065,0.5064,0.506,0.5076,0.5084,0.5083,0.507,0.5057,0.5057,0.5144,0.5145,0,0,0,0.5077,0.5098,0.5082,0.5089,0.5084,0.5065,0.5063,0.5076,0.5069,0.5082,0.507,0.5057,0.5057,0.5143,0.5144,0.5213,0,0,0,0.5077,0.5103,0.5083,0.51,0.5085,0.508,0.508,0.5069,0.5068,0.507,0.5057,0.5057,0.5142,0.5144,0.5209,0.5241,0,0,0,0.5091,0.5105,0.5106,0.5102,0.5096,0.508,0.5072,0.5068,0.506,0.5056,0.5057,0.5141,0.5143,0.5205,0.5235,0.5271,0,0,0,0.5113,0.5168,0.5108,0.5164,0.5096,0.5123,0.5071,0.509,0.5095,0.5057,0.5142,0.5144,0.5204,0.5231,0.5268,0.5307,0.5326,0,0,0.5199,0.518,0.521,0.5156,0.52,0.5123,0.5177,0.5154,0.5128,0.514,0.5142,0.521,0.5234,0.527,0.5424,0.544,0,0,0,0.5247,0.527,0.5275,0.5281,0.5265,0.5253,0.5218,0.521,0.5219,0.514,0.5233,0.5246,0.5266,0.5283,0.5297,0.5311,0.5154,0.5153,0.5153,0.541,0.5372,0.542,0.538,0.5386,0.5349,0.535,0.5331,0.5293,0.5315,0.5318,0.5416,0.5438,0.5447,0.5463,0.5336,0.5337,0.5337,0.5337,0.5531,0.5556,0.5501,0.5528,0.5487,0.5509,0.5475,0.5447,0.546,0.5411,0.5427,0.5376,0.5466,0.5477,0.5342,0.5341,0.534,0.534,0.534,0.5633,0.5638,0.5626,0.5629,0.5635,0.5592,0.5607,0.557,0.5535,0.555,0.5549,0.5548,0.5541,0.5552,0.5553,0.5553,0.5553,0.5554,0.5554,0.5743,0.5727,0.5745,0.5731,0.5728,0.572,0.5683,0.5679,0.5665,0.5637,0.5636,0.5595,0.5482,0.5454,0.5559,0.5558,0.5557,0.5557,0.5556,0.5879,0.5842,0.587,0.5867,0.5846,0.5854,0.5806,0.5801,0.5792,0.5801,0.5755,0.5678,0.5655,0.5645,0.5621,0.5763,0.5763,0.5763,0.5763,0.5965,0.595,0.5968,0.5966,0.596,0.5919,0.5949,0.592,0.5883,0.5875,0.5849,0.5815,0.5805,0.5789,0.5775,0.5752,0.5925,0.5925,0.5925,0.6046,0.6028,0.6062,0.6026,0.6006,0.599,0.6017,0.6016,0.5967,0.5931,0.5868,0.5861,0.5805,0.5789,0.5752,0.5732,0.5689,0,0]}]]